Regional Weather Roundup
Issued by NWS

Home | Current Version | Previous Version | Graphics & Text | Print | Product List | Glossary On
Versions: 1 2 3 4 5 6 7 8 9 10 11 12 13 14 15 16 17 18 19 20 21 22 23 24 25 26 27 28 29 30 31 32 33 34 35 36 37 38 39 40 41 42 43 44 45 46 47 48 49 50
000
ASUS43 KLOT 210806
RWRIL

ILLINOIS REGIONAL WEATHER ROUNDUP
NATIONAL WEATHER SERVICE CHICAGO/ROMEOVILLE IL
300 AM CDT TUE OCT 21 2014

NOTE: "FAIR" INDICATES FEW OR NO CLOUDS BELOW 12,000 FEET WITH NO
SIGNIFICANT WEATHER AND/OR OBSTRUCTIONS TO VISIBILITY.

* THESE STATIONS ARE NOT UNDER NWS QUALITY CONTROL. THEY ALSO MAY NOT
  REPORT WEATHER SUCH AS PRECIPITATION OR FOG.

ILZ001-002-007-009-015-016-024-210900-
NORTHWEST ILLINOIS

CITY           SKY/WX    TMP DP  RH WIND       PRES   REMARKS
MOLINE         CLEAR     39  37  92 CALM      30.07R FOG
STERLING*      CLEAR     39  36  87 NW5       30.06R
SAVANNA*       FOG       39  38  94 N3        30.07R VSB 3/4
$$

ILZ003-004-008-010-011-017-018-210900-
NORTH CENTRAL ILLINOIS

CITY           SKY/WX    TMP DP  RH WIND       PRES   REMARKS
ROCKFORD       CLOUDY    49  42  77 N6        30.07R
FREEPORT*      CLEAR     42  38  85 N3        30.08R
ROCHELLE*      PTCLDY    41  39  93 CALM      30.05R
DE KALB*       CLOUDY    46  41  82 N5        30.04S
PERU*          CLEAR     42  39  88 NW5       30.05S
$$

ILZ005-006-012>014-019>023-210900-
NORTHEAST ILLINOIS

CITY           SKY/WX    TMP DP  RH WIND       PRES   REMARKS
CHICAGO-OHARE  CLOUDY    51  42  71 N10       30.01S
CHICAGO-MIDWAY CLOUDY    53  44  71 N9        30.01S
AURORA         CLOUDY    48  41  76 NW6       30.03S
LANSING*       CLOUDY    51  44  75 N5        30.01S
JOLIET*        CLOUDY    49  42  78 CALM      30.02S
WAUKEGAN       CLOUDY    48  41  76 NW8       30.02R
DUPAGE AIRPORT CLOUDY    51  42  71 N9        30.02S
KANKAKEE*      MOCLDY    50  44  80 NW3       30.02S
WHEELING       CLOUDY    51  42  71 N7        30.03R
MORRIS*        PTCLDY    46  42  88 CALM      30.02S
ROMEOVILLE*    CLOUDY    49  42  78 NW3       30.02S
NORTHERLY ISL    N/A     52  42  69 N14         N/A
$$

LMZ740>746-210900-
SOUTHERN LAKE MICHIGAN

STATION/POSITION SKY/WX   TEMP    WIND        PRES    VSBY  WAVE
                          AIR SEA DIR/SP/G                  HT/PER
                          (F)     (DEG/KT/KT) (MB)    (MI)  (FT/S)
SOUTHERN BUOY              51 54  350/ 19/ 23 1016.0R         4/ 6
WAUKEGAN HARBOR            50     340/  8/ 10   N/A
HARRISON CRIB              52     340/ 18/ 20   N/A
BURNHAM HARBOR             52     350/  9/ 15   N/A
CALUMET HARBOR             52     330/  8/ 14 1014.9F
MICHIGAN CITY              52     340/ 19/ 22   N/A
$$

ILZ025>027-034>036-040-047-049-050-058-095>099-210900-
WEST-CENTRAL ILLINOIS

CITY           SKY/WX    TMP DP  RH WIND       PRES   REMARKS
QUINCY         CLEAR     46  41  82 NW6       30.04S
GALESBURG*     CLEAR     39  37  94 CALM      30.06R
MACOMB*        CLEAR     42  39  91 NE5       30.07S
JACKSONVILLE*  CLEAR     45  42  88 NW3       30.03S
PITTSFIELD*    CLEAR     47  42  81 W5        30.05S
$$

ILZ028>032-037-038-041>044-048-051>054-059>061-210900-
CENTRAL ILLINOIS

CITY           SKY/WX    TMP DP  RH WIND       PRES   REMARKS
PONTIAC        MOCLDY    46  45  93 NW6       30.03R
BLOOMINGTON    CLEAR     45  41  86 NW5       30.04R
DECATUR        CLEAR     45  42  89 CALM      30.03R
PEORIA         CLEAR     45  41  86 CALM      30.05R
LACON*         CLEAR     38  37  94 CALM      30.05R
LINCOLN*       CLEAR     44  42  89 CALM      30.02S
SPRINGFIELD    CLEAR     43  40  89 NE3       30.03R
TAYLORVILLE    CLEAR     43  41  93 CALM      30.02S
$$

ILZ033-039-045-046-055>057-062-063-210900-
EAST-CENTRAL ILLINOIS

CITY           SKY/WX    TMP DP  RH WIND       PRES   REMARKS
CHAMPAIGN      CLEAR     43  42  97 W5        30.02R
DANVILLE*      CLOUDY    47  46  96 NW5       29.98S
RANTOUL*       CLOUDY    47  44  90 NW5       30.02S FOG
MATTOON        CLEAR     45  41  86 CALM      30.01R
PARIS*         MOCLDY    47  46  96 CALM      30.02S
$$

ILZ079-100>102-210900-
SOUTHWEST ILLINOIS

CITY           SKY/WX    TMP DP  RH WIND       PRES   REMARKS
ALTON          CLEAR     46  43  88 W3        30.03S
BELLEVILLE     CLEAR     45  43  94 NW1       30.02R
CAHOKIA*       CLEAR     47  45  93 SW5       30.03S
SPARTA*        CLEAR     51  44  75 W3        30.04S
$$

ILZ064>066-069>071-074>076-080>082-084>086-088>090-092>094-210900-
SOUTH-CENTRAL ILLINOIS

CITY           SKY/WX    TMP DP  RH WIND       PRES   REMARKS
CARBONDALE     CLEAR     44  42  93 SW3       30.03R
CAIRO*         FOG       47  45  91 CALM      30.03S VSB 1/2
EFFINGHAM*     CLEAR     44  41  88 CALM      30.02R
MARION         CLEAR     48  46  93 CALM      30.03R
MT. VERNON     CLEAR     45  39  81 CALM      30.02S
CENTRALIA*     CLEAR     46  42  86 CALM      30.01S
SALEM*         CLEAR     49  46  89 CALM      30.02R
METROPOLIS*    CLEAR     47  47 100 CALM      30.01S
$$

ILZ067-068-072-073-078-083-087-091-210900-
SOUTHEAST ILLINOIS

CITY           SKY/WX    TMP DP  RH WIND       PRES   REMARKS
LAWRENCEVILLE  CLEAR     47  44  90 NW6       30.01R
FLORA*         CLEAR     47  43  85 NW5       30.02R
FAIRFIELD*     CLEAR     45  43  95 CALM      30.00S
HARRISBURG*    CLEAR     46  46 100 CALM      30.03R
ROBINSON*      CLEAR     45  44  97 CALM      30.02R
CARMI*         CLEAR     46  46  98 CALM      30.00S
$$

ABBREVIATIONS USED IN REMARKS
   TC - TEMPERATURE IN CELSIUS
  WCI - WIND CHILL INDEX
   HX - HEAT INDEX
  VSB - VISIBILITY
$$



USA.gov is the U.S. government's official web portal to all federal, state and local government web resources and services.